Date String (YYYY-MM-DD hh:mm:ss) UTC,Instrument flags,Ambient pressure (hPa),Sample flow (lpm),Bypass flow (lpm),Sample temperature (°C),Ambient temperature (°C),ASC tube jacket temperature (°C),LED temperature (°C),Box temperature (°C),Sample RH (%),Span deviation,Mass concentration (μg/m³),Mass concentration (μg/m³),Mass concentration (μg/m³)
DateTimeUTC,F1_M11,P_M11,Q1_M11,Q2_M11,T1_M11,T2_M11,T3_M11,T4_M11,T5_M11,U1_M11,ZSPAN_M11,X0_M11,X2_M11,X1_M11
2022-10-11 00:00:00,,0822.9,4.99,0.00,29.4,27.2,00.0,38.2,31.2,12.0,0000.0,0010.29,0003.98,0003.43
2022-10-11 00:01:00,,0822.9,5.01,0.00,29.4,27.5,00.0,38.1,31.3,12.0,0000.0,0010.31,0004.00,0003.44
2022-10-11 00:02:00,,0823.0,5.00,0.00,29.4,27.7,00.0,38.1,31.3,12.2,0000.0,0010.26,0004.00,0003.46
2022-10-11 00:03:00,,0823.1,4.98,0.00,29.4,27.9,00.0,38.1,31.3,12.3,0000.0,0010.18,0004.01,0003.46
2022-10-11 00:04:00,,0823.0,5.01,0.00,29.4,28.1,00.0,38.1,31.4,12.3,0000.0,0010.17,0004.03,0003.46
2022-10-11 00:05:00,,0823.0,4.99,0.00,29.5,28.3,00.0,38.2,31.4,12.3,0000.0,0009.93,0004.04,0003.47
2022-10-11 00:06:00,,0823.0,5.01,0.00,29.5,28.4,00.0,38.2,31.5,12.4,0000.0,0009.90,0004.03,0003.47
2022-10-11 00:07:00,,0823.0,5.01,0.00,29.5,28.5,00.0,38.2,31.5,12.5,0000.0,0009.59,0004.01,0003.48
2022-10-11 00:08:00,,0823.0,5.00,0.00,29.6,28.6,00.0,38.2,31.5,12.6,0000.0,0008.68,0004.01,0003.47
2022-10-11 00:09:00,,0823.1,5.01,0.00,29.6,28.6,00.0,38.2,31.6,12.8,0000.0,0008.28,0004.02,0003.46
2022-10-11 00:10:00,,0823.1,4.99,0.00,29.6,28.7,00.0,38.3,31.6,12.5,0000.0,0008.04,0004.01,0003.46
2022-10-11 00:11:00,,0823.1,5.01,0.00,29.7,28.4,00.0,38.3,31.6,12.3,0000.0,0007.97,0004.02,0003.46
2022-10-11 00:12:00,,0823.0,4.99,0.00,29.6,26.8,00.0,38.3,31.5,12.4,0000.0,0008.22,0004.03,0003.47
2022-10-11 00:13:00,,0823.1,5.01,0.00,29.6,25.7,00.0,38.2,31.3,12.6,0000.0,0009.02,0004.07,0003.46
2022-10-11 00:14:00,,0823.1,5.00,0.00,29.5,25.8,00.0,38.1,31.1,12.4,0000.0,0008.98,0004.05,0003.46
2022-10-11 00:15:00,,0823.1,4.99,0.00,29.4,26.1,00.0,38.1,31.0,12.3,0000.0,0008.78,0004.00,0003.46
2022-10-11 00:16:00,,0823.0,4.99,0.00,29.3,26.4,00.0,38.1,31.0,11.9,0000.0,0009.40,0003.98,0003.45
2022-10-11 00:17:00,,0823.1,5.00,0.00,29.3,26.8,00.0,38.1,31.1,12.1,0000.0,0009.40,0003.97,0003.45
2022-10-11 00:18:00,,0823.1,5.00,0.00,29.3,27.1,00.0,38.1,31.1,11.9,0000.0,0009.75,0003.98,0003.45
2022-10-11 00:19:00,,0823.0,5.00,0.00,29.3,27.4,00.0,38.0,31.1,11.8,0000.0,0010.16,0003.99,0003.45
2022-10-11 00:20:00,,0823.0,4.99,0.00,29.3,27.6,00.0,38.0,31.2,11.6,0000.0,0011.23,0004.01,0003.44
2022-10-11 00:21:00,,0823.0,5.00,0.00,29.3,27.8,00.0,38.0,31.2,11.4,0000.0,0011.13,0004.02,0003.45
2022-10-11 00:22:00,,0823.1,5.00,0.00,29.3,27.9,00.0,38.0,31.2,11.3,0000.0,0011.10,0004.01,0003.44
2022-10-11 00:23:00,,0823.0,4.99,0.00,29.3,28.1,00.0,38.0,31.2,11.1,0000.0,0010.85,0003.99,0003.44
2022-10-11 00:24:00,,0823.1,5.01,0.00,29.3,28.2,00.0,38.1,31.3,11.1,0000.0,0010.10,0003.96,0003.42
2022-10-11 00:25:00,,0823.0,4.99,0.00,29.4,28.3,00.0,38.1,31.3,11.2,0000.0,0010.35,0004.00,0003.43
2022-10-11 00:26:00,,0823.1,5.01,0.00,29.4,28.3,00.0,38.1,31.4,11.1,0000.0,0010.71,0004.01,0003.43
2022-10-11 00:27:00,,0823.0,4.99,0.00,29.4,28.4,00.0,38.1,31.4,11.1,0000.0,0010.61,0004.02,0003.43
2022-10-11 00:28:00,,0823.0,5.00,0.00,29.4,28.5,00.0,38.1,31.4,11.1,0000.0,0010.88,0004.02,0003.43
2022-10-11 00:29:00,,0823.1,5.00,0.00,29.5,28.5,00.0,38.1,31.5,11.1,0000.0,0011.20,0004.02,0003.43
2022-10-11 00:30:00,,0823.1,5.00,0.00,29.5,28.6,00.0,38.2,31.5,10.9,0000.0,0011.52,0004.00,0003.44
2022-10-11 00:31:00,,0823.0,4.99,0.00,29.5,28.6,00.0,38.2,31.5,10.9,0000.0,0010.73,0004.01,0003.45
2022-10-11 00:32:00,,0823.1,5.01,0.00,29.6,28.7,00.0,38.2,31.6,11.0,0000.0,0011.67,0004.01,0003.45
2022-10-11 00:33:00,,0823.1,4.98,0.00,29.6,28.7,00.0,38.2,31.6,11.0,0000.0,0012.11,0004.04,0003.46
2022-10-11 00:34:00,,0823.1,5.01,0.00,29.6,28.7,00.0,38.3,31.6,10.9,0000.0,0012.31,0004.09,0003.47
2022-10-11 00:35:00,,0823.1,5.00,0.00,29.7,28.7,00.0,38.3,31.6,10.9,0000.0,0012.39,0004.10,0003.48
2022-10-11 00:36:00,,0823.1,5.00,0.00,29.7,27.6,00.0,38.3,31.5,10.9,0000.0,0012.27,0004.09,0003.49
2022-10-11 00:37:00,,0823.0,5.01,0.00,29.6,26.4,00.0,38.3,31.3,11.1,0000.0,0011.93,0004.12,0003.49
2022-10-11 00:38:00,,0823.0,5.00,0.00,29.5,26.3,00.0,38.2,31.3,11.7,0000.0,0011.55,0004.13,0003.51
2022-10-11 00:39:00,,0823.0,5.01,0.00,29.4,26.6,00.0,38.2,31.1,11.3,0000.0,0011.29,0004.14,0003.51
2022-10-11 00:40:00,,0823.0,4.99,0.00,29.4,26.9,00.0,38.2,31.2,11.2,0000.0,0010.58,0004.12,0003.50
2022-10-11 00:41:00,,0823.0,5.00,0.00,29.4,27.2,00.0,38.2,31.2,11.1,0000.0,0009.82,0004.11,0003.49
2022-10-11 00:42:00,,0823.0,5.01,0.00,29.4,27.5,00.0,38.2,31.2,11.1,0000.0,0009.61,0004.09,0003.49
2022-10-11 00:43:00,,0823.0,5.01,0.00,29.4,27.7,00.0,38.2,31.3,11.0,0000.0,0008.38,0004.08,0003.50
2022-10-11 00:44:00,,0823.0,5.01,0.00,29.4,27.9,00.0,38.2,31.3,10.9,0000.0,0007.58,0004.02,0003.48
2022-10-11 00:45:00,,0823.0,4.99,0.00,29.4,28.0,00.0,38.2,31.3,10.9,0000.0,0007.28,0003.96,0003.47
2022-10-11 00:46:00,,0823.0,5.00,0.00,29.4,28.1,00.0,38.2,31.4,10.9,0000.0,0007.41,0003.92,0003.47
2022-10-11 00:47:00,,0823.1,4.99,0.00,29.5,28.2,00.0,38.2,31.4,10.8,0000.0,0007.72,0003.89,0003.46
2022-10-11 00:48:00,,0823.1,5.01,0.00,29.5,28.3,00.0,38.2,31.4,10.8,0000.0,0007.89,0003.87,0003.46
2022-10-11 00:49:00,,0823.1,5.00,0.00,29.5,28.4,00.0,38.2,31.5,10.7,0000.0,0007.65,0003.86,0003.46
2022-10-11 00:50:00,,0823.1,5.02,0.00,29.5,28.4,00.0,38.2,31.5,10.6,0000.0,0007.84,0003.87,0003.46
2022-10-11 00:51:00,,0823.0,4.99,0.00,29.6,28.5,00.0,38.3,31.5,10.4,0000.0,0007.89,0003.88,0003.46
2022-10-11 00:52:00,,0823.0,5.01,0.00,29.6,28.6,00.0,38.3,31.6,10.4,0000.0,0008.23,0003.90,0003.47
2022-10-11 00:53:00,,0823.0,4.99,0.00,29.6,28.6,00.0,38.3,31.6,10.2,0000.0,0008.84,0003.92,0003.48
2022-10-11 00:54:00,,0823.1,5.01,0.00,29.6,28.6,00.0,38.3,31.6,10.4,0000.0,0009.41,0003.94,0003.49
2022-10-11 00:55:00,,0823.0,4.99,0.00,29.7,28.6,00.0,38.3,31.6,10.2,0000.0,0009.93,0003.97,0003.51
2022-10-11 00:56:00,,0823.1,5.01,0.00,29.7,28.7,00.0,38.3,31.6,10.0,0000.0,0010.06,0004.01,0003.53
2022-10-11 00:57:00,,0823.0,4.99,0.00,29.7,28.1,00.0,38.3,31.6,10.1,0000.0,0009.79,0004.04,0003.54
2022-10-11 00:58:00,,0823.0,5.00,0.00,29.7,26.5,00.0,38.3,31.4,10.1,0000.0,0009.44,0004.05,0003.55
2022-10-11 00:59:00,,0823.0,5.01,0.00,29.6,26.2,00.0,38.3,31.3,10.0,0000.0,0009.22,0004.05,0003.55
